When you browse on this site, cookies collect data to enhance your experience and personalize the content and advertising you see.
Visit our Privacy Policy to learn more. By continuing to use the site, you agree to this use of cookies and data.
  • In Hungary
  • List of Countries
  • For 7 days
  • Water Temperature
  • Satellite Maps
  • Weather Map
  • News
  • Weather Widgets
  • user-avatar
    Login

    Hourly Weather Yerevan

    Today, 26 April, Friday

    Time Temperature Precipitation Wind Pressure Humidity
    00:00 +9°C° 0 mm 1 mps 695 mmHg 45%
    01:00 +9°C° 0 mm 1 mps 695 mmHg 47%
    02:00 +8°C° 0 mm 1 mps 695 mmHg 48%
    03:00 +8°C° 0 mm 1 mps 694 mmHg 48%
    04:00 +8°C° 0 mm 1 mps 695 mmHg 49%
    05:00 +8°C° 0 mm 1 mps 695 mmHg 50%
    06:00 +8°C° 0 mm 1 mps 695 mmHg 51%
    07:00 +10°C° 0 mm 1 mps 695 mmHg 46%
    08:00 +12°C° 0 mm 1 mps 695 mmHg 40%
    09:00 +14°C° 0 mm 1 mps 694 mmHg 34%
    10:00 +15°C° 0 mm 1 mps 694 mmHg 32%
    11:00 +16°C° 0 mm 2 mps 694 mmHg 30%
    12:00 +17°C° 0 mm 2 mps 694 mmHg 28%
    13:00 +17°C° 0 mm 2 mps 693 mmHg 27%
    14:00 +18°C° 0 mm 2 mps 693 mmHg 26%
    15:00 +18°C° 0 mm 2 mps 693 mmHg 25%
    16:00 +18°C° 0 mm 2 mps 693 mmHg 26%
    17:00 +18°C° 0 mm 1 mps 693 mmHg 27%
    18:00 +16°C° 0 mm 1 mps 693 mmHg 28%
    19:00 +15°C° 0 mm 1 mps 693 mmHg 32%
    20:00 +13°C° 0 mm 1 mps 693 mmHg 35%
    21:00 +12°C° 0 mm 1 mps 693 mmHg 38%
    22:00 +11°C° 0 mm 1 mps 693 mmHg 40%
    23:00 +10°C° 0 mm 1 mps 693 mmHg 41%

    Tomorrow, 27 April, Saturday

    Time Temperature Precipitation Wind Pressure Humidity
    00:00 +10°C° 0 mm 1 mps 693 mmHg 43%
    01:00 +10°C° 0 mm 1 mps 693 mmHg 44%
    02:00 +9°C° 0 mm 1 mps 693 mmHg 45%
    03:00 +9°C° 0 mm 1 mps 693 mmHg 47%
    04:00 +9°C° 0 mm 1 mps 693 mmHg 47%
    05:00 +9°C° 0 mm 1 mps 693 mmHg 48%
    06:00 +8°C° 0 mm 0 mps 693 mmHg 49%
    07:00 +11°C° 0 mm 1 mps 693 mmHg 43%
    08:00 +13°C° 0 mm 1 mps 693 mmHg 36%
    09:00 +14°C° 0 mm 1 mps 692 mmHg 30%
    10:00 +16°C° 0 mm 1 mps 692 mmHg 29%
    11:00 +17°C° 0 mm 2 mps 692 mmHg 27%
    12:00 +18°C° 0 mm 2 mps 692 mmHg 25%
    13:00 +18°C° 0 mm 2 mps 692 mmHg 24%
    14:00 +19°C° 0 mm 2 mps 691 mmHg 24%
    15:00 +19°C° 0 mm 3 mps 691 mmHg 23%
    16:00 +19°C° 0 mm 2 mps 691 mmHg 25%
    17:00 +18°C° 0 mm 2 mps 690 mmHg 26%
    18:00 +17°C° 0 mm 2 mps 690 mmHg 28%
    19:00 +16°C° 0 mm 2 mps 690 mmHg 30%
    20:00 +14°C° 0 mm 1 mps 691 mmHg 32%
    21:00 +13°C° 0 mm 1 mps 691 mmHg 33%
    22:00 +13°C° 0 mm 1 mps 691 mmHg 33%
    23:00 +12°C° 0 mm 1 mps 691 mmHg 33%

    Day after tomorrow, 28 April, Sunday

    Time Temperature Precipitation Wind Pressure Humidity
    00:00 +12°C° 0 mm 2 mps 691 mmHg 33%
    01:00 +10°C° 0 mm 2 mps 691 mmHg 33%
    02:00 +11°C° 0 mm 1 mps 690 mmHg 34%
    03:00 +11°C° 0 mm 1 mps 690 mmHg 34%
    04:00 +11°C° 0 mm 1 mps 690 mmHg 36%
    05:00 +10°C° 0 mm 2 mps 690 mmHg 38%
    06:00 +10°C° 0 mm 2 mps 690 mmHg 39%
    07:00 +13°C° 0 mm 2 mps 690 mmHg 36%
    08:00 +14°C° 0 mm 2 mps 690 mmHg 32%
    09:00 +16°C° 0 mm 2 mps 690 mmHg 28%
    10:00 +17°C° 0 mm 2 mps 690 mmHg 28%
    11:00 +18°C° 0 mm 2 mps 690 mmHg 28%
    12:00 +19°C° 0 mm 2 mps 689 mmHg 28%
    13:00 +19°C° 0 mm 2 mps 689 mmHg 28%
    14:00 +19°C° 0 mm 2 mps 689 mmHg 29%
    15:00 +20°C° 0 mm 2 mps 689 mmHg 30%
    16:00 +19°C° 0 mm 3 mps 689 mmHg 32%
    17:00 +18°C° 0 mm 3 mps 688 mmHg 34%
    18:00 +18°C° 0 mm 3 mps 688 mmHg 36%
    19:00 +16°C° 0 mm 2 mps 689 mmHg 39%
    20:00 +15°C° 0 mm 2 mps 689 mmHg 41%
    21:00 +14°C° 0 mm 2 mps 689 mmHg 43%
    22:00 +13°C° 0 mm 2 mps 689 mmHg 46%
    23:00 +13°C° 0 mm 2 mps 689 mmHg 48%

    29 April, Monday

    Time Temperature Precipitation Wind Pressure Humidity
    00:00 +13°C° 0 mm 1 mps 689 mmHg 51%
    01:00 +12°C° 0 mm 2 mps 689 mmHg 53%
    02:00 +12°C° 0 mm 2 mps 689 mmHg 54%
    03:00 +12°C° 0 mm 2 mps 689 mmHg 56%
    04:00 +12°C° 0 mm 2 mps 689 mmHg 57%
    05:00 +12°C° 0 mm 2 mps 689 mmHg 58%
    06:00 +12°C° 0 mm 2 mps 689 mmHg 58%
    07:00 +14°C° 0 mm 2 mps 690 mmHg 54%
    08:00 +16°C° 0 mm 2 mps 690 mmHg 50%
    09:00 +17°C° 0 mm 2 mps 690 mmHg 45%
    10:00 +18°C° 0.1 mm 3 mps 690 mmHg 42%
    11:00 +20°C° 0.1 mm 3 mps 690 mmHg 40%
    12:00 +21°C° 0.1 mm 3 mps 689 mmHg 37%
    13:00 +21°C° 0.1 mm 3 mps 689 mmHg 36%
    14:00 +21°C° 0.1 mm 3 mps 689 mmHg 34%
    15:00 +22°C° 0.1 mm 3 mps 688 mmHg 33%
    16:00 +21°C° 0.1 mm 3 mps 688 mmHg 35%
    17:00 +20°C° 0.1 mm 3 mps 688 mmHg 38%
    18:00 +20°C° 0.1 mm 4 mps 688 mmHg 40%
    19:00 +18°C° 0.1 mm 3 mps 689 mmHg 43%
    20:00 +17°C° 0.1 mm 3 mps 689 mmHg 46%
    21:00 +16°C° 0.1 mm 2 mps 689 mmHg 49%
    22:00 +16°C° 0.1 mm 2 mps 689 mmHg 50%
    23:00 +15°C° 0.1 mm 2 mps 689 mmHg 51%

    30 April, Tuesday

    Time Temperature Precipitation Wind Pressure Humidity
    00:00 +15°C° 0.1 mm 2 mps 689 mmHg 52%
    01:00 +15°C° 0.1 mm 2 mps 689 mmHg 53%
    02:00 +14°C° 0.1 mm 2 mps 689 mmHg 55%
    03:00 +14°C° 0.1 mm 2 mps 689 mmHg 57%
    04:00 +14°C° 0 mm 2 mps 689 mmHg 58%
    05:00 +14°C° 0 mm 2 mps 690 mmHg 58%
    06:00 +14°C° 0 mm 2 mps 690 mmHg 59%
    07:00 +15°C° 0 mm 2 mps 690 mmHg 54%
    08:00 +17°C° 0 mm 2 mps 690 mmHg 49%
    09:00 +18°C° 0 mm 2 mps 690 mmHg 43%
    10:00 +19°C° 0.1 mm 2 mps 690 mmHg 41%
    11:00 +20°C° 0.1 mm 2 mps 690 mmHg 38%
    12:00 +21°C° 0.1 mm 3 mps 690 mmHg 35%
    13:00 +22°C° 0.1 mm 3 mps 689 mmHg 34%
    14:00 +22°C° 0.1 mm 3 mps 689 mmHg 33%
    15:00 +24°C° 0.1 mm 3 mps 689 mmHg 32%
    16:00 +22°C° 0.1 mm 3 mps 689 mmHg 34%
    17:00 +22°C° 0.1 mm 4 mps 689 mmHg 37%
    18:00 +21°C° 0.1 mm 4 mps 688 mmHg 39%
    19:00 +20°C° 0.1 mm 4 mps 689 mmHg 42%
    20:00 +18°C° 0.1 mm 3 mps 689 mmHg 44%
    21:00 +17°C° 0.1 mm 2 mps 689 mmHg 46%
    22:00 +17°C° 0.1 mm 2 mps 689 mmHg 46%
    23:00 +16°C° 0.1 mm 2 mps 690 mmHg 46%

    1 May, Wednesday

    Time Temperature Precipitation Wind Pressure Humidity
    00:00 +16°C° 0.1 mm 2 mps 690 mmHg 45%
    01:00 +16°C° 0.1 mm 2 mps 690 mmHg 46%
    02:00 +15°C° 0.1 mm 2 mps 690 mmHg 46%
    03:00 +15°C° 0.1 mm 2 mps 689 mmHg 47%
    04:00 +15°C° 0 mm 2 mps 690 mmHg 47%
    05:00 +15°C° 0 mm 2 mps 690 mmHg 47%
    06:00 +15°C° 0 mm 2 mps 690 mmHg 48%
    07:00 +17°C° 0 mm 2 mps 690 mmHg 43%
    08:00 +18°C° 0 mm 3 mps 690 mmHg 39%
    09:00 +20°C° 0 mm 3 mps 690 mmHg 34%
    10:00 +21°C° 0 mm 3 mps 690 mmHg 32%
    11:00 +24°C° 0 mm 3 mps 689 mmHg 30%
    12:00 +25°C° 0 mm 3 mps 689 mmHg 27%
    13:00 +25°C° 0.1 mm 3 mps 689 mmHg 27%
    14:00 +25°C° 0.1 mm 3 mps 688 mmHg 26%
    15:00 +26°C° 0.1 mm 4 mps 688 mmHg 26%
    16:00 +25°C° 0.2 mm 4 mps 688 mmHg 28%
    17:00 +23°C° 0.2 mm 4 mps 688 mmHg 31%
    18:00 +22°C° 0.2 mm 4 mps 688 mmHg 34%
    19:00 +21°C° 0.1 mm 3 mps 688 mmHg 36%
    20:00 +20°C° 0.1 mm 3 mps 689 mmHg 38%
    21:00 +18°C° 0.1 mm 2 mps 689 mmHg 41%
    22:00 +18°C° 0.1 mm 2 mps 689 mmHg 42%
    23:00 +18°C° 0.1 mm 2 mps 689 mmHg 42%
    Show more